Location: Tamazert
(32.6352°N, 5.2072°W)
Time: 04:40:58
(UTC+00:00)

Vanguard 2 Rocket - Pass Details

Date: 11 October 2022
Orbit: 555 x 3321 km, 32.9° (Epoch: 05 December)

Event Time Altitude Azimuth Distance (km) Brightness Sun altitude
Rises 16:36:27 0° 198° (SSW) 6,500 11.8 14.8°
Reaches altitude 10° 16:41:40 10° 186° (S) 5,811 11.4 13.8°
Maximum altitude 16:56:00 27° 137° (SE) 4,948 10.5 10.9°
Drops below altitude 10° 17:10:38 10° 89° (E) 6,028 10.5 7.9°
Sets 17:16:01 0° 79° (ENE) 6,786 10.6 6.8°
